| time (UTC) | temp C | wind direction | speed KPH | gust KPH | rain 1hr cm | rain 24hr cm | rain mn cm | humidity % | barometer mb |
| 20260506091837 | 17 | 0 | 8.0 | 0.0 | 0.00 | 0.00 | 0.00 | 63 | |
| 20260506081835 | 16 | 240 | 11.3 | 0.0 | 0.00 | 0.00 | 0.00 | 72 | |
| 20260506071837 | 15 | 230 | 11.3 | 0.0 | 0.00 | 0.00 | 0.00 | 77 | |
| 20260506061838 | 13 | 220 | 8.0 | 0.0 | 0.00 | 0.00 | 0.00 | 82 | |
| 20260506042037 | 11 | 240 | 3.2 | 0.0 | 0.00 | 0.00 | 0.00 | 93 | |
| 20260506031838 | 12 | 220 | 3.2 | 0.0 | 0.00 | 0.00 | 0.00 | 93 | |
| 20260506021837 | 12 | 0 | 8.0 | 0.0 | 0.00 | 0.00 | 0.00 | 93 | |
| 20260506011937 | 12 | 210 | 8.0 | 0.0 | 0.00 | 0.00 | 0.00 | 93 | |
| 20260506001835 | 12 | 270 | 3.2 | 0.0 | 0.00 | 0.00 | 0.00 | 99 | |
| 20260505231835 | 12 | 190 | 8.0 | 0.0 | 0.00 | 0.00 | 0.00 | 93 | |
| 20260505221835 | 13 | 300 | 8.0 | 0.0 | 0.00 | 0.00 | 0.00 | 87 | |
| 20260505211908 | 15 | 280 | 14.5 | 0.0 | 0.00 | 0.00 | 0.00 | 87 | |
| 20260505201851 | 17 | 240 | 3.2 | 0.0 | 0.00 | 0.00 | 0.00 | 63 | |
| 20260505191909 | 17 | 90 | 11.3 | 0.0 | 0.00 | 0.00 | 0.00 | 59 | |
| 20260505181851 | 18 | 100 | 11.3 | 0.0 | 0.00 | 0.00 | 0.00 | 55 | |
| 20260505171835 | 20 | 90 | 19.3 | 0.0 | 0.00 | 0.00 | 0.00 | 52 | |
| 20260505161934 | 22 | 100 | 11.3 | 0.0 | 0.00 | 0.00 | 0.00 | 40 | |
| 20260505151835 | 23 | 120 | 8.0 | 0.0 | 0.00 | 0.00 | 0.00 | 36 | |
| 20260505121835 | 22 | 0 | 8.0 | 0.0 | 0.00 | 0.00 | 0.00 | 40 | |
| 20260505111835 | 22 | 0 | 8.0 | 0.0 | 0.00 | 0.00 | 0.00 | 43 | |
| 20260505101836 | 22 | 0 | 8.0 | 0.0 | 0.00 | 0.00 | 0.00 | 46 |